FW9066 Weather Reports


time (UTC)temp
F
wind
direction
speed
knots
gust
knots
rain 1hr
in
rain 24hr
in
rain mn
in
humidity
%
barometer
mb
20260509023005 55 131 0.0 0.9 0.00 0.00 0.00 81 1012.6
20260509020005 57 129 0.0 0.9 0.00 0.00 0.00 79 1012.2
20260509014503 57 124 1.7 1.7 0.00 0.00 0.00 77 1012.2
20260509013003 57 127 0.9 1.7 0.00 0.00 0.00 76 1012.2
20260509011503 58 139 0.9 2.6 0.00 0.00 0.00 76 1012.1
20260509004503 59 132 0.9 2.6 0.00 0.00 0.00 74 1011.9
20260509003004 60 133 0.9 2.6 0.00 0.00 0.00 74 1011.7
20260509000005 62 136 0.9 1.7 0.00 0.00 0.00 74 1011.6
20260508234503 63 132 0.9 1.7 0.00 0.00 0.00 67 1011.3
20260508233004 63 119 0.9 1.7 0.00 0.00 0.00 64 1011.3
20260508231503 64 131 0.9 1.7 0.00 0.00 0.00 64 1011.2
20260508230005 65 124 0.9 0.9 0.00 0.00 0.00 57 1011.2
20260508224503 65 145 0.9 1.7 0.00 0.00 0.00 54 1011.1
20260508223003 67 86 0.9 2.6 0.00 0.00 0.00 51 1011.2
20260508221503 68 240 0.0 0.9 0.00 0.00 0.00 54 1011.0
20260508220004 69 251 0.0 1.7 0.00 0.00 0.00 52 1011.1
20260508214502 70 257 1.7 4.3 0.00 0.00 0.00 43 1011.0
20260508213003 70 276 1.7 5.2 0.00 0.00 0.00 43 1011.0
20260508211503 70 287 1.7 6.1 0.00 0.00 0.00 38 1011.1
20260508210004 70 285 1.7 5.2 0.00 0.00 0.00 36 1011.0
20260508201502 70 117 0.9 2.6 0.00 0.00 0.00 47 1011.3
20260508200005 69 236 1.7 4.3 0.00 0.00 0.00 44 1011.4
20260508194503 69 27 2.6 5.2 0.00 0.00 0.00 42 1011.4
20260508193003 69 36 1.7 6.1 0.00 0.00 0.00 44 1011.7
20260508190004 69 38 1.7 3.5 0.00 0.00 0.00 51 1012.4
20260508184503 69 77 0.9 5.2 0.00 0.00 0.00 50 1012.5
20260508174503 66 297 0.9 3.5 0.00 0.00 0.00 60 1013.1
20260508173002 65 300 1.7 6.1 0.00 0.00 0.00 60 1013.3
20260508171503 64 293 1.7 6.1 0.00 0.00 0.00 60 1013.6
20260508170004 64 240 0.9 1.7 0.00 0.00 0.00 62 1014.1
20260508164501 62 335 1.7 5.2 0.00 0.00 0.00 64 1014.2
20260508163001 62 8 1.7 5.2 0.00 0.00 0.00 64 1014.6
20260508161501 61 360 1.7 4.3 0.00 0.00 0.00 65 1015.1
20260508160004 60 103 0.9 4.3 0.00 0.00 0.00 67 1015.1
20260508154501 59 224 1.7 3.5 0.00 0.00 0.00 69 1015.1
20260508153001 58 294 1.7 6.1 0.00 0.00 0.00 70 1015.3
20260508150005 56 320 0.9 5.2 0.00 0.00 0.00 76 1015.7
20260508144501 55 304 0.9 4.3 0.00 0.00 0.00 79 1015.6
20260508143001 54 33 0.9 1.7 0.00 0.00 0.00 81 1015.7
20260508141501 52 264 0.0 1.7 0.00 0.00 0.00 87 1015.8
20260508140003 49 104 0.9 2.6 0.00 0.00 0.00 91 1016.0
20260508134502 48 269 0.9 2.6 0.00 0.00 0.00 92 1016.1
20260508133002 47 275 0.9 1.7 0.00 0.00 0.00 93 1016.1
20260508131501 46 278 0.0 1.7 0.00 0.00 0.00 94 1016.2
20260508130004 45 14 0.0 1.7 0.00 0.00 0.00 95 1016.1
20260508124501 44 288 0.0 2.6 0.00 0.01 0.00 95 1016.1
20260508123001 44 293 0.9 1.7 0.00 0.01 0.00 95 1016.2
20260508121501 44 286 0.0 0.9 0.00 0.01 0.00 96 1016.1
20260508114501 43 248 0.0 0.9 0.00 0.01 0.00 95 1015.5
20260508113001 43 131 0.0 0.9 0.00 0.01 0.00 95 1015.4
20260508111501 43 131 0.0 0.9 0.00 0.01 0.00 95 1015.0
20260508104501 42 130 0.0 0.9 0.00 0.14 0.00 95 1014.5
20260508103000 41 131 0.0 0.0 0.00 0.14 0.00 95 1014.3
20260508101501 41 131 0.0 0.0 0.00 0.14 0.00 94 1014.1
20260508100004 42 130 0.0 0.9 0.00 0.14 0.00 94 1013.9
20260508094501 42 131 0.0 0.9 0.00 0.17 0.00 94 1013.8
20260508093001 42 131 0.0 0.9 0.00 0.17 0.00 94 1013.7
20260508091501 42 130 0.0 0.0 0.00 0.17 0.00 94 1013.6
20260508090004 43 130 0.0 0.9 0.00 0.17 0.00 93 1013.5
20260508084501 44 131 0.0 0.9 0.00 0.17 0.00 94 1013.5
20260508083001 44 130 0.0 0.9 0.00 0.17 0.00 94 1013.5
20260508081501 44 146 0.0 0.9 0.00 0.17 0.00 95 1013.5
20260508074501 44 151 0.0 0.0 0.00 0.17 0.00 95 1013.2
20260508073001 44 151 0.0 0.9 0.00 0.17 0.00 95 1013.1
20260508071501 44 151 0.0 0.0 0.00 0.17 0.00 95 1013.2
20260508070002 45 313 0.0 0.9 0.00 0.17 0.00 95 1013.4
20260508064500 45 148 0.0 0.9 0.00 0.17 0.00 95 1013.6
20260508061500 45 137 0.0 0.9 0.00 0.17 0.00 94 1013.4
20260508054505 45 138 0.0 0.0 0.00 0.19 0.00 94 1013.5
20260508053003 46 138 0.0 0.9 0.00 0.19 0.00 95 1013.3
20260508051504 46 139 0.0 0.0 0.00 0.19 0.00 94 1013.5
20260508050014 46 137 0.0 0.0 0.00 0.19 0.00 94 1013.4
20260508043004 47 153 0.0 0.9 0.00 0.27 0.19 94 1013.3
20260508041505 47 143 0.0 1.7 0.00 0.27 0.19 94 1013.2
20260508040005 47 153 0.0 0.9 0.00 0.27 0.19 93 1013.4
20260508034503 47 126 0.0 0.9 0.00 0.49 0.19 93 1013.2
20260508030005 49 152 0.0 0.0 0.00 0.49 0.19 91 1013.2